Location: North Evanston
(42.0634°N, 87.6976°W)
Time: 14:20:49
(UTC+00:00)

Injun/Solrad 3 - Pass Details

Date: 13 May 2026
Orbit: 867 x 989 km, 66.8° (Epoch: 7 June)

Event Time Altitude Azimuth Distance (km) Brightness Sun altitude
Rises 20:19:08 0° 167° (SSE) 3,489 11.0 50.2°
Reaches altitude 10° 20:22:09 10° 153° (SSE) 2,573 10.3 49.6°
Maximum altitude 20:26:33 22° 105° (ESE) 1,907 9.5 48.9°
Drops below altitude 10° 20:31:03 10° 57° (ENE) 2,649 10.0 48.1°
Sets 20:34:11 0° 43° (NE) 3,621 10.6 47.6°
